Regional Weather Roundup
Issued by NWS

Home | Current Version | Previous Version | Graphics & Text | Print | Product List | Glossary On
Versions: 1 2 3 4 5 6 7 8 9 10 11 12 13 14 15 16 17 18 19 20 21 22 23 24 25 26 27 28 29 30 31 32 33 34 35 36 37 38 39 40 41 42 43 44 45 46 47 48 49 50
000
ASUS43 KIND 301559
RWRIN

WEATHER ROUNDUP FOR INDIANA
NATIONAL WEATHER SERVICE INDIANAPOLIS IN
1200 PM EDT FRI SEP 30 2016

NOTE: "FAIR" INDICATES FEW OR NO CLOUDS BELOW 12,000 FEET WITH NO
SIGNIFICANT WEATHER AND/OR OBSTRUCTIONS TO VISIBILITY.

* - STATION DOES NOT REPORT WEATHER SUCH AS PRECIPITATION OR FOG.

+ - STATION NOT QUALITY CONTROLLED BY THE NATIONAL WEATHER SERVICE.
    USE DATA WITH CAUTION...ESPECIALLY DEWPOINT AND RELATIVE
    HUMIDITY OBSERVATIONS.

INZ001>003-010>013-019-020-301700-
NORTHWEST INDIANA

CITY           SKY/WX    TMP DP  RH WIND       PRES   REMARKS
GARY /AIRPORT/ CLOUDY    63  61  94 NE12G26   30.13F

$$

LMZ046-743>745-301700-
SOUTHERN LAKE MICHIGAN

STATION/POSITION TIME  TEMP    WIND        PRES    WAVE
                       AIR SEA DIR/SP/G            HT
                 (UTC) (F)     (DEG/KT/KT) (MB)    (FT)
BURNS HARBOR     1540   62      50/ 19/ 22 1020.0F
MICHIGAN CITY    1530   60      20/ 18/ 20   N/A
5NW MICH CITY    1550   62 64   40/ 16/ 19   N/A     6

$$

INZ004-005-014>016-021>024-301700-
NORTH CENTRAL INDIANA

CITY           SKY/WX    TMP DP  RH WIND       PRES   REMARKS
ELKHART        LGT RAIN  63  59  88 NE7       30.12S
GOSHEN         CLOUDY    65  59  81 NE13      30.10F
SOUTH BEND     CLOUDY    62  60  93 NE9       30.12F

$$

INZ006>009-017-018-025>027-301700-
NORTHEAST INDIANA

CITY           SKY/WX    TMP DP  RH WIND       PRES   REMARKS
ANGOLA *+        N/A     61  52  72 E9        30.12S
FORT WAYNE     CLOUDY    62  59  90 NE9       30.08S
KENDALLVILLE + CLOUDY    62  59  89 E15       30.10F

$$

INZ028-029-035-036-043>045-051>053-301700-
WEST CENTRAL INDIANA

CITY           SKY/WX    TMP DP  RH WIND       PRES   REMARKS
CRAWFORDSVL +  CLOUDY    61  61 100 N5        30.05F
LAFAYETTE      NOT AVBL
TERRE HAUTE    CLOUDY    63  59  87 VRB6      30.05S

$$

INZ030>032-037>040-046>048-054>057-064-065-301700-
CENTRAL INDIANA

CITY           SKY/WX    TMP DP  RH WIND       PRES   REMARKS
ANDERSON       CLOUDY    61  61 100 CALM      30.04F
COLUMBUS       CLOUDY    61  59  94 CALM      30.04S
INDIANAPOLIS   CLOUDY    63  57  81 NE3       30.04S
-EAGLE CREEK   PTSUNNY   64  58  80 CALM      30.04F
KOKOMO *+      CLOUDY    63  61  94 NE13      30.06F
MT COMFORT *+  CLOUDY    61  57  88 CALM      30.04F
SHELBYVILLE    LGT RAIN  63  57  81 N5        30.03F

$$

INZ033-034-041-042-049-050-058-059-301700-
EAST CENTRAL INDIANA

CITY           SKY/WX    TMP DP  RH WIND       PRES   REMARKS
MUNCIE         PTSUNNY   66  61  84 E8        30.03F

$$

INZ060-061-067>069-081>083-085>088-301700-
SOUTHWEST INDIANA

CITY           SKY/WX    TMP DP  RH WIND       PRES   REMARKS
EVANSVILLE     CLOUDY    66  56  70 NE7       30.04S
HUNTINGBURG *+   N/A     61  54  77 CALM      30.04F

$$

INZ062-063-066-070>080-084-089>092-301700-
SOUTH CENTRAL AND SOUTHEAST INDIANA

CITY           SKY/WX    TMP DP  RH WIND       PRES   REMARKS
BLOOMINGTON    CLOUDY    63  55  75 SE8       30.04F
MADISON *+     MOSUNNY   63  52  67 SW3       30.06F
SEYMOUR +      CLOUDY    63  55  77 CALM      30.04F

$$




USA.gov is the U.S. government's official web portal to all federal, state and local government web resources and services.